Content
SEND FEEDBACK

Daily
Averages
Monthly
Summary
Nicaragua

COFRADIA, NICARAGUA


Home > Central America > Nicaragua
Elevation: 184 feet     Latitude: 12 01N     Longitude: 086 12W

WEATHER
 
SELECT A DAY
Number of Records: 155,220;   Date Range: 7/1/96 - 7/30/14
 
SHARE

PRINT THIS DATA

[ ← Previous Day ]
WEATHER ALMANAC - FEBRUARY 13, 2013
[ Next Day → ]
[ °C ]   °F
Weather ElementAverageHighLow
Temperature80.9 °F91.4 °F (1:00 pm)69.8 °F (4:00 am)
Dewpoint67.2 °F71.6 °F (9:00 pm)64.4 °F (5:00 am)
Humidity65.5 %88 % (4:00 am)41 % (3:00 pm)
Barometer29.86 in29.95 in (9:00 am)29.77 in (3:00 pm)
Wind Speed8.8 mph18.4 mph (12:00 pm)
Weather ElementAverage
Visibility6.2 mi
Wind DirectionESE (101.3 °)

Weather ElementTotal
Precipitation---
Cooling Degree Days15.6 (Base 65)
Growing Degree Days30.6 (Base 50)
Averaged from 23 records on February 13, 2013
WEATHER CONDITIONS BREAKOUT
WIND DIRECTION BREAKOUT
WEATHER BY HOUR - FEBRUARY 13, 2013
[ °C ]   °F
Local TimeTemperatureDewpointHumidityBarometerVisibilityWind DirectionWind SpeedGust SpeedPrecipitationEventsConditions
1:00 AM73.4 °F68.0 °F83 %29.89 in6.2 miESE (110°)4.6 mphPartly Cloudy
2:00 AM73.4 °F68.0 °F83 %29.89 in6.2 miESE (110°)4.6 mphPartly Cloudy
3:00 AM71.6 °F66.2 °F83 %29.86 in6.2 miEast (80°)4.6 mphPartly Cloudy
4:00 AM69.8 °F66.2 °F88 %29.86 in6.2 miEast (90°)4.6 mphPartly Cloudy
5:00 AM69.8 °F64.4 °F83 %29.86 in6.2 miEast (90°)4.6 mphPartly Cloudy
6:00 AM69.8 °F66.2 °F88 %29.86 in6.2 miENE (70°)4.6 mphPartly Cloudy
7:00 AM73.4 °F68.0 °F83 %29.89 in6.2 miEast (100°)6.9 mphPartly Cloudy
8:00 AM77.0 °F68.0 °F74 %29.89 in6.2 miEast (90°)4.6 mphPartly Cloudy
9:00 AM80.6 °F68.0 °F65 %29.95 in6.2 miEast (80°)9.2 mphPartly Cloudy
10:00 AM84.2 °F66.2 °F55 %29.95 in6.2 miEast (90°)11.5 mphScattered Clouds
11:00 AM86.0 °F68.0 °F55 %29.92 in6.2 miEast (100°)13.8 mphScattered Clouds
12:00 PM89.6 °F66.2 °F46 %29.89 in6.2 miEast (100°)18.4 mphScattered Clouds
1:00 PM91.4 °F66.2 °F43 %29.86 in6.2 miEast (90°)11.5 mphScattered Clouds
2:00 PM91.4 °F66.2 °F43 %29.80 in6.2 miEast (80°)11.5 mphScattered Clouds
3:00 PM91.4 °F64.4 °F41 %29.77 in6.2 miESE (110°)16.1 mphPartly Cloudy
4:00 PM91.4 °F64.4 °F41 %29.77 in6.2 miESE (120°)13.8 mphPartly Cloudy
5:00 PM89.6 °F64.4 °F43 %29.77 in6.2 miESE (110°)11.5 mphPartly Cloudy
6:00 PM86.0 °F64.4 °F48 %29.77 in6.2 miESE (120°)11.5 mphPartly Cloudy
7:00 PM82.4 °F68.0 °F62 %29.80 in6.2 miESE (110°)9.2 mphPartly Cloudy
8:00 PM80.6 °F69.8 °F70 %29.83 in6.2 miESE (110°)6.9 mphPartly Cloudy
9:00 PM80.6 °F71.6 °F74 %29.86 in6.2 miESE (120°)9.2 mphPartly Cloudy
10:00 PM78.8 °F71.6 °F78 %29.89 in6.2 miSE (130°)4.6 mphPartly Cloudy
11:00 PM78.8 °F71.6 °F78 %29.89 in6.2 miESE (120°)4.6 mphPartly Cloudy
Hourly data recorded from MNMG, located miles away from Cofradia, Nicaragua







STORIES FROM OUR PARTNERS